• Processing (Info)

  • MPEC 2006-F47 : 2006 FW33

    The following Minor Planet Electronic Circular may be linked-to from your own Web pages, but must not otherwise be redistributed electronically.

    A form allowing access to any MPEC is at the bottom of this page.


    Read MPEC 2006-F46 Read MPEC 2006-F48


    M.P.E.C. 2006-F47                                Issued 2006 Mar. 29, 16:24 UT
    
         The Minor Planet Electronic Circulars contain information on unusual
             minor planets and routine data on comets.  They are published
       on behalf of Commission 20 of the International Astronomical Union by the
              Minor Planet Center, Smithsonian Astrophysical Observatory,
                              Cambridge, MA 02138, U.S.A.
    
                      Supported in part by the Brinson Foundation
                      Supported in part by the TABASGO Foundation
                 Prepared using the Tamkin Foundation Computer Network
    
                                  MPC@CFA.HARVARD.EDU
              URL http://cfa-www.harvard.edu/iau/mpc.html  ISSN 1523-6714
    
                                       2006 FW33
    
    Observations:
         K06F33W* C2006 03 26.29324 12 09 50.61 +02 21 11.5          21.4 V EF047G96
         K06F33W  C2006 03 26.30088 12 09 49.24 +02 21 18.8          21.1 V EF047G96
         K06F33W  C2006 03 26.30824 12 09 47.88 +02 21 25.4          21.0 V EF047G96
         K06F33W  C2006 03 26.31565 12 09 46.58 +02 21 32.4          21.3 V EF047G96
         K06F33W  C2006 03 26.33742 12 09 42.69 +02 21 53.3          21.6 V EF047G96
         K06F33W  C2006 03 26.35605 12 09 39.28 +02 22 10.4          21.4 V EF047G96
         K06F33W  C2006 03 26.36527 12 09 37.62 +02 22 17.9          21.1 V EF047G96
         K06F33W HC2006 03 29.18639 12 01 22.16 +03 05 30.9                 EF047291
         K06F33W HC2006 03 29.19196 12 01 21.14 +03 05 35.2                 EF047291
         K06F33W  C2006 03 29.19770 12 01 20.16 +03 05 40.6          22.7 V EF047291
    
    Observer details:
    291 LPL/Spacewatch II.  Observer J. V. Scotti.  1.8-m f/2.7 reflector + CCD.
    G96 Mt. Lemmon Survey.  Observer R. A. Kowalski.  Measurers E. C. Beshore,
        E. J. Christensen, G. J. Garradd, A. R. Gibbs, A. D. Grauer, R. E. Hill,
        R. A. Kowalski, S. M. Larson, R. H. McNaught.  1.5-m reflector + CCD.
    
    Orbital elements:
    2006 FW33                                                Earth MOID = 0.0610 AU
    Epoch 2006 Mar. 6.0 TT = JDT 2453800.5                  MPC
    M 167.90175              (2000.0)            P               Q
    n   0.94360662     Peri.  347.45568     +0.99891705     -0.03338704
    a   1.0294582      Node    14.57485     +0.04523898     +0.85969104
    e   0.7702931      Incl.    7.39848     -0.01086996     +0.50972209
    P   1.04           H   20.2           G   0.15           U   9
    Residuals in seconds of arc
    060326 G96  0.0   0.1-    060326 G96  0.6+  0.6+    060329 291  0.4-  0.3-
    060326 G96  0.1+  0.1+    060326 G96  0.2-  0.4+    060329 291  0.3+  0.1-
    060326 G96  0.4-  0.2-    060326 G96  0.2-  0.7-
    060326 G96  0.1+  0.1-    060329 291  0.1+  0.4+
    
    Ephemeris:
    2006 FW33                a,e,i = 1.03, 0.77, 7                   q = 0.2365
    Date    TT    R. A. (2000) Decl.     Delta      r     Elong.  Phase     V
    2006 03 26    12 10.71   +02 16.7    0.825    1.821   175.2     2.6    21.4
    2006 03 31    11 56.11   +03 32.6    0.830    1.817   167.3     6.9    21.6
    2006 04 05    11 42.09   +04 42.7    0.843    1.812   158.9    11.5    21.8
    2006 04 10    11 29.12   +05 44.6    0.864    1.806   150.7    15.8    22.0
    2006 04 15    11 17.52   +06 36.8    0.893    1.797   142.8    19.7    22.2
    
    Kyle E. Smalley              (C) Copyright 2006 MPC           M.P.E.C. 2006-F47
    

    Read MPEC 2006-F46 Read MPEC 2006-F48


    MPEC number:

    Enter an MPEC number in one of the following forms:

    • 1997-B01 (the full form)
    • J97B01 (the packed version of the full form)
    • B01 (the abbreviated form)